Kezdőlap
METAR-TAF:

METAR-TAF

Repülőterek :

Båtsfjord, Norvégia

földrajzi szélesség: 70-38N, földrajzi hosszúság: 029-44E, magasság: 10 m

Jelenlegi meteorológiai megfigyelések

A jelentés 1 órával és 6 perccel ezelõtt készült, 12:50 UTC
Nyugat-délnyugati szél 4 kt
Hőmérséklet -3°C
Páratartalom 86%
Légköri nyomás 1020 hPa
Látótávolság 10 km, vagy több
Szórványos felhőzet 2700 lábon

METAR: ENBS 111250Z 25004KT 9999 SCT027 M03/M05 Q1020

Idő: 14:56 (13:56 UTC)


TAF: hiányzik

Meteorológiai megfigyelések és előrejelzések több, mint 4000 repülőtéren (METAR és TAF jelentéseket).

A térképen piros és sárga pontok jelzik az elérhető meteorológiai állomásokat.

Mozgassa az egeret a pont fölött, hogy megjelenjen az állomás neve.

Azután kattintson az időjárási megfigyelések és előrejelzések megtekintéséhez.

A térkép megváltoztatása: kattintson a fekete keresztel jelölt zöld gombra ráközelítéshez, a vonallal jelölt zöld gombra távolításhoz, vagy a zöld nyilakra a szomszédos térképek eléréséhez.


METAR-TAF: